Temp
-14 -14 -14 -14 -14 -13 -14 -14 -14 -14 -14 -14 -14 -14 -14 -15 -14 -14 -14 -13 -13 -13 -13 -13 -13 -13 -14 -14 -14 -14 -15 -15 -16 -16 -17 -17 -17 -17 -17 -17 -18 -18
-14 -14 -14 -14 -14 -14 -14 -14 -14 -14 -14 -14 -14 -14 -15 -14 -14 -14 -14 -14 -13 -13 -13 -14 -14 -13 -13 -14 -14 -14 -15 -15 -16 -16 -17 -17 -17 -17 -17 -17 -18 -18
-15 -14 -14 -14 -14 -14 -14 -14 -14 -14 -14 -14 -14 -14 -14 -14 -14 -14 -14 -14 -14 -14 -14 -14 -14 -14 -14 -14 -14 -14 -15 -15 -16 -16 -17 -17 -17 -17 -17 -18 -18 -18
-15 -15 -15 -14 -14 -14 -14 -14 -14 -14 -14 -14 -14 -14 -14 -14 -15 -15 -15 -15 -14 -14 -14 -14 -14 -14 -14 -14 -14 -15 -15 -15 -16 -16 -17 -17 -17 -18 -18 -18 -18 -18
-15 -15 -15 -15 -15 -14 -14 -14 -14 -14 -14 -14 -14 -14 -15 -15 -15 -15 -15 -15 -15 -15 -15 -15 -15 -15 -15 -15 -15 -15 -15 -16 -16 -16 -17 -17 -17 -18 -18 -18 -18 -18
-15 -15 -15 -15 -15 -15 -15 -15 -15 -15 -15 -15 -15 -15 -15 -15 -15 -15 -15 -15 -15 -15 -16 -16 -15 -15 -15 -15 -15 -15 -16 -16 -16 -17 -17 -17 -17 -18 -18 -18 -18 -18
-15 -15 -15 -15 -15 -15 -15 -15 -15 -15 -15 -15 -15 -15 -15 -15 -16 -16 -16 -16 -16 -16 -16 -16 -16 -16 -16 -16 -16 -16 -16 -16 -16 -17 -17 -17 -17 -18 -18 -18 -18 -19
-16 -16 -16 -16 -15 -15 -15 -15 -15 -15 -15 -15 -15 -15 -15 -16 -16 -16 -16 -16 -16 -16 -16 -16 -16 -16 -16 -16 -16 -16 -16 -16 -16 -17 -17 -17 -17 -18 -18 -18 -18 -19
-17 -16 -16 -16 -16 -16 -16 -15 -15 -15 -15 -15 -15 -16 -16 -16 -16 -16 -16 -16 -16 -16 -16 -16 -16 -16 -17 -17 -16 -16 -17 -17 -17 -17 -17 -17 -17 -18 -18 -18 -18 -19
-17 -17 -17 -16 -16 -16 -16 -16 -16 -16 -16 -16 -16 -16 -16 -16 -17 -17 -16 -16 -16 -16 -16 -16 -16 -17 -17 -17 -17 -17 -17 -17 -17 -17 -17 -17 -17 -17 -18 -18 -19 -19
-17 -17 -17 -17 -17 -16 -16 -16 -16 -16 -16 -16 -16 -16 -16 -17 -17 -17 -17 -16 -17 -17 -17 -17 -17 -17 -17 -17 -18 -18 -18 -18 -18 -18 -18 -18 -18 -18 -18 -18 -18 -19
-17 -17 -17 -17 -17 -17 -17 -17 -17 -17 -17 -17 -17 -16 -17 -17 -17 -17 -17 -17 -17 -17 -17 -17 -17 -17 -18 -18 -18 -18 -18 -18 -18 -18 -18 -18 -18 -18 -18 -18 -18 -19
-17 -17 -17 -18 -18 -18 -18 -17 -17 -17 -17 -17 -17 -17 -17 -17 -17 -17 -18 -18 -18 -18 -18 -18 -18 -18 -18 -18 -18 -18 -18 -19 -19 -19 -19 -18 -18 -18 -18 -18 -18 -19
-17 -17 -17 -18 -18 -18 -18 -18 -17 -17 -17 -17 -17 -17 -17 -18 -18 -18 -18 -18 -18 -18 -18 -18 -18 -18 -18 -18 -18 -18 -19 -19 -19 -19 -19 -19 -19 -19 -18 -18 -18 -18
-17 -17 -18 -18 -18 -18 -18 -18 -18 -18 -18 -18 -18 -18 -18 -18 -18 -18 -18 -18 -18 -18 -18 -18 -18 -18 -18 -18 -18 -19 -19 -19 -19 -19 -19 -19 -19 -19 -19 -19 -18 -18
-18 -18 -18 -18 -18 -17 -18 -18 -18 -18 -18 -18 -18 -18 -18 -18 -18 -18 -18 -18 -18 -18 -18 -18 -19 -19 -19 -19 -19 -19 -19 -19 -19 -19 -19 -19 -19 -19 -19 -19 -19 -19
-18 -18 -18 -18 -18 -18 -18 -18 -18 -18 -18 -18 -18 -18 -18 -18 -18 -18 -18 -18 -19 -18 -19 -19 -19 -19 -19 -19 -19 -19 -19 -19 -19 -19 -19 -19 -20 -20 -20 -19 -19 -19
-18 -18 -18 -18 -18 -18 -18 -18 -18 -18 -18 -18 -18 -18 -19 -19 -19 -19 -19 -19 -19 -19 -19 -19 -19 -19 -20 -20 -20 -20 -20 -20 -20 -19 -19 -19 -20 -20 -20 -20 -19 -19
-18 -18 -18 -18 -18 -18 -18 -18 -18 -18 -19 -19 -19 -19 -19 -19 -19 -19 -19 -19 -19 -19 -19 -19 -19 -19 -20 -20 -20 -20 -20 -20 -20 -20 -20 -20 -20 -20 -20 -20 -20 -20
-18 -18 -18 -18 -18 -18 -18 -18 -19 -19 -19 -19 -19 -19 -19 -19 -19 -19 -19 -19 -19 -19 -19 -19 -19 -19 -20 -20 -20 -20 -20 -20 -20 -20 -20 -20 -20 -20 -20 -20 -20 -20
-18 -18 -18 -18 -18 -18 -18 -18 -19 -19 -19 -19 -19 -19 -19 -19 -19 -19 -19 -19 -19 -19 -19 -20 -20 -20 -20 -20 -20 -20 -20 -21 -21 -20 -20 -20 -20 -20 -20 -20 -21 -21
-17 -18 -18 -18 -18 -18 -18 -18 -18 -18 -19 -19 -19 -19 -19 -19 -19 -19 -19 -19 -19 -19 -19 -20 -20 -20 -20 -20 -20 -20 -20 -20 -21 -21 -21 -20 -20 -20 -20 -20 -20 -21
-17 -17 -18 -18 -18 -18 -18 -18 -18 -18 -18 -19 -19 -19 -19 -19 -19 -19 -19 -19 -19 -19 -19 -19 -20 -20 -20 -20 -20 -20 -20 -20 -20 -21 -21 -21 -21 -21 -20 -20 -20 -21
-17 -17 -17 -18 -18 -18 -18 -18 -18 -18 -18 -18 -18 -18 -19 -19 -19 -19 -19 -19 -19 -19 -19 -19 -20 -20 -20 -20 -20 -20 -20 -20 -20 -21 -21 -21 -21 -21 -21 -21 -21 -21
-17 -17 -17 -18 -18 -18 -18 -18 -18 -18 -18 -18 -18 -18 -19 -19 -19 -19 -19 -19 -19 -19 -19 -20 -20 -20 -20 -20 -21 -20 -20 -20 -20 -21 -21 -21 -21 -21 -21 -21 -21 -21
-17 -17 -17 -18 -18 -18 -18 -18 -18 -18 -18 -18 -18 -18 -19 -19 -19 -19 -19 -19 -19 -19 -20 -20 -20 -20 -20 -21 -21 -21 -21 -21 -21 -21 -21 -21 -21 -21 -21 -21 -21 -21
Height
5622 5623 5625 5628 5630 5633 5635 5637 5639 5641 5642 5644 5646 5648 5650 5651 5652 5653 5655 5656 5658 5660 5662 5664 5666 5667 5669 5670 5671 5672 5672 5673 5673 5674 5674 5674 5674 5675 5675 5676 5677 5677
5615 5617 5619 5622 5624 5627 5630 5632 5634 5636 5637 5639 5640 5642 5644 5645 5646 5648 5650 5651 5653 5655 5657 5659 5661 5662 5664 5665 5666 5667 5668 5669 5670 5670 5670 5671 5671 5671 5671 5672 5672 5673
5609 5611 5614 5616 5619 5622 5625 5627 5628 5630 5631 5633 5634 5636 5638 5640 5641 5643 5645 5646 5648 5650 5652 5654 5655 5657 5659 5660 5661 5663 5664 5665 5666 5666 5667 5667 5667 5668 5668 5668 5668 5669
5603 5606 5608 5610 5613 5616 5618 5620 5622 5624 5626 5628 5629 5631 5632 5634 5636 5638 5640 5642 5643 5645 5646 5648 5650 5652 5654 5655 5656 5657 5659 5660 5661 5662 5663 5663 5664 5664 5664 5665 5665 5665
5597 5600 5602 5604 5606 5609 5612 5614 5617 5619 5621 5622 5624 5625 5627 5629 5631 5633 5635 5637 5638 5640 5641 5643 5645 5646 5648 5650 5651 5652 5653 5655 5656 5657 5658 5659 5659 5660 5660 5661 5661 5661
5591 5593 5596 5598 5600 5603 5606 5609 5611 5613 5615 5616 5618 5619 5621 5623 5625 5628 5630 5632 5633 5635 5636 5638 5639 5641 5643 5644 5646 5647 5648 5649 5651 5652 5653 5654 5655 5656 5656 5657 5657 5657
5584 5587 5589 5592 5594 5597 5599 5602 5604 5607 5609 5611 5612 5613 5616 5618 5620 5622 5624 5626 5628 5629 5631 5632 5634 5635 5637 5639 5640 5642 5643 5644 5645 5647 5648 5649 5650 5652 5652 5653 5653 5653
5577 5580 5583 5585 5588 5590 5593 5595 5598 5601 5603 5605 5607 5608 5611 5613 5614 5616 5618 5620 5622 5624 5625 5627 5629 5630 5632 5634 5635 5636 5638 5639 5640 5641 5643 5644 5645 5647 5648 5648 5649 5649
5570 5573 5576 5579 5582 5584 5587 5590 5592 5595 5597 5599 5601 5603 5605 5608 5609 5610 5612 5614 5616 5618 5620 5622 5624 5625 5627 5628 5630 5631 5632 5633 5635 5636 5638 5639 5640 5641 5642 5643 5644 5645
5562 5565 5568 5572 5576 5578 5581 5584 5587 5589 5592 5594 5595 5597 5600 5602 5604 5605 5606 5609 5611 5613 5615 5617 5619 5621 5622 5623 5625 5626 5627 5628 5629 5631 5632 5634 5635 5636 5638 5639 5640 5640
5554 5558 5561 5565 5569 5573 5576 5579 5581 5584 5586 5588 5590 5592 5595 5597 5598 5599 5601 5603 5606 5608 5610 5612 5613 5616 5617 5618 5620 5621 5622 5623 5625 5626 5627 5628 5630 5631 5633 5634 5635 5635
5547 5551 5555 5559 5563 5567 5570 5573 5576 5578 5580 5583 5585 5587 5590 5591 5592 5594 5596 5598 5601 5602 5604 5606 5608 5610 5612 5613 5614 5616 5617 5619 5620 5621 5622 5623 5624 5626 5627 5628 5629 5630
5541 5544 5548 5553 5556 5560 5563 5566 5570 5573 5575 5577 5580 5582 5584 5585 5587 5589 5591 5593 5595 5597 5599 5600 5603 5604 5606 5608 5609 5611 5613 5614 5615 5616 5617 5618 5619 5620 5621 5623 5624 5625
5534 5537 5541 5545 5549 5552 5556 5559 5563 5566 5569 5571 5573 5576 5578 5580 5582 5583 5585 5587 5589 5591 5593 5595 5597 5599 5600 5602 5604 5606 5608 5610 5611 5612 5612 5613 5614 5615 5616 5617 5618 5619
5527 5530 5534 5537 5541 5545 5549 5552 5556 5559 5562 5565 5567 5570 5572 5574 5576 5577 5579 5581 5583 5585 5587 5589 5591 5593 5595 5598 5599 5601 5603 5604 5606 5607 5607 5608 5609 5610 5611 5611 5613 5614
5519 5522 5526 5530 5534 5538 5542 5546 5549 5552 5555 5558 5561 5564 5566 5568 5569 5571 5573 5575 5577 5579 5581 5584 5586 5588 5590 5592 5594 5595 5597 5599 5600 5602 5602 5603 5604 5604 5605 5606 5607 5608
5511 5515 5520 5524 5528 5532 5536 5539 5542 5545 5548 5551 5554 5557 5559 5561 5563 5565 5567 5569 5571 5574 5575 5578 5580 5582 5584 5586 5588 5589 5591 5593 5595 5596 5598 5598 5599 5600 5600 5601 5602 5602
5503 5508 5513 5517 5521 5525 5529 5532 5535 5538 5541 5544 5547 5550 5553 5555 5557 5559 5561 5563 5565 5568 5570 5572 5574 5576 5578 5580 5581 5583 5585 5587 5589 5591 5592 5594 5594 5595 5595 5596 5596 5597
5495 5500 5505 5510 5514 5519 5522 5525 5528 5531 5535 5538 5541 5544 5546 5549 5551 5553 5555 5557 5559 5562 5564 5566 5568 5569 5571 5573 5575 5577 5579 5581 5583 5584 5586 5588 5589 5589 5589 5590 5591 5591
5487 5492 5498 5503 5507 5511 5515 5518 5522 5525 5528 5532 5534 5537 5540 5542 5544 5546 5548 5551 5554 5556 5558 5560 5561 5563 5565 5567 5569 5571 5572 5574 5576 5578 5579 5581 5582 5583 5584 5585 5585 5586
5479 5485 5490 5495 5499 5503 5507 5511 5514 5518 5521 5524 5527 5530 5533 5536 5538 5540 5542 5544 5547 5549 5551 5553 5555 5556 5558 5560 5562 5564 5565 5567 5569 5570 5572 5574 5575 5577 5578 5579 5580 5580
5472 5478 5483 5487 5491 5495 5499 5503 5507 5510 5513 5516 5520 5523 5525 5528 5530 5532 5534 5537 5539 5542 5544 5546 5548 5550 5552 5553 5555 5557 5558 5559 5561 5563 5565 5567 5569 5571 5572 5573 5574 5574
5465 5470 5475 5479 5483 5488 5492 5497 5500 5503 5506 5509 5512 5514 5517 5520 5522 5524 5527 5530 5532 5535 5537 5539 5541 5543 5544 5546 5548 5550 5551 5552 5554 5556 5558 5560 5562 5563 5565 5566 5567 5568
5459 5462 5467 5471 5476 5481 5486 5490 5493 5496 5500 5503 5505 5508 5510 5513 5515 5517 5519 5522 5525 5527 5529 5531 5533 5535 5537 5539 5540 5542 5544 5546 5548 5549 5550 5552 5554 5556 5558 5559 5560 5561
5452 5456 5460 5465 5470 5474 5478 5482 5486 5489 5493 5496 5499 5501 5504 5505 5507 5510 5512 5514 5517 5519 5521 5523 5525 5527 5529 5531 5533 5535 5538 5539 5541 5542 5543 5545 5546 5548 5550 5552 5553 5554
5445 5449 5454 5459 5464 5468 5471 5474 5478 5481 5485 5488 5491 5494 5496 5498 5500 5502 5505 5507 5509 5511 5513 5515 5517 5519 5522 5524 5526 5528 5530 5532 5534 5535 5537 5538 5540 5542 5543 5544 5545 5547
Wind_Speed
38 37 36 36 38 40 40 41 40 38 36 35 34 34 32 31 31 30 28 27 26 26 25 25 25 23 22 22 21 21 21 21 22 23 25 26 27 30 31 31 31 31
39 38 37 37 38 39 39 40 40 39 38 37 36 36 35 34 34 32 30 29 28 27 27 27 26 25 23 22 22 23 22 21 22 23 24 26 28 30 32 33 33 32
40 39 38 38 38 39 39 39 40 40 40 39 38 38 37 36 36 34 32 31 30 30 29 28 27 27 25 24 24 24 23 22 22 23 23 25 28 30 32 34 34 34
41 40 39 39 39 40 40 40 41 41 41 40 38 38 38 38 37 36 34 33 32 31 30 29 29 28 27 25 25 25 23 23 22 22 23 24 27 30 32 33 34 34
42 41 41 41 40 41 41 41 41 42 42 41 40 40 39 39 38 37 36 35 34 32 31 30 30 29 27 26 26 26 24 23 22 21 22 24 26 29 31 32 33 34
43 42 42 42 41 41 41 41 41 43 43 42 42 41 40 40 39 38 37 36 35 33 32 31 30 30 28 27 26 26 25 23 22 21 22 23 25 28 31 33 33 34
44 43 43 43 42 42 42 42 43 44 44 43 42 42 41 41 40 39 38 37 36 35 33 32 32 31 29 28 27 27 25 23 22 21 22 23 25 28 31 34 35 35
45 45 44 44 44 43 43 44 45 45 45 44 42 42 41 41 41 39 38 37 36 35 34 33 33 32 30 29 29 29 27 24 23 22 22 23 25 28 31 34 36 37
46 46 45 45 44 44 44 45 46 46 45 44 43 43 42 42 41 39 38 37 36 35 34 34 33 32 31 31 31 31 29 26 24 24 23 24 25 28 31 33 35 37
48 47 46 46 45 44 45 45 46 46 45 44 43 43 41 41 41 39 37 36 35 35 34 33 33 33 32 32 32 32 31 29 27 25 25 25 26 27 29 32 34 37
49 48 47 46 45 44 44 45 46 46 45 44 43 42 40 39 39 37 35 34 34 34 33 33 33 33 33 34 34 34 33 31 29 27 27 27 27 27 28 31 34 36
48 48 47 46 45 45 45 46 46 45 44 43 42 40 39 38 38 36 34 34 34 34 34 34 35 34 35 35 36 36 35 33 32 30 30 29 29 28 28 30 32 35
45 46 46 46 46 46 46 46 45 43 43 42 41 39 38 37 37 36 35 35 36 36 36 36 36 36 36 36 36 36 36 34 34 33 32 31 31 30 29 29 31 33
41 42 43 45 47 47 47 46 43 41 41 42 41 39 38 37 37 37 37 37 37 37 37 37 37 37 37 36 36 36 36 35 36 36 35 34 33 32 31 30 30 31
41 41 41 44 46 46 45 44 41 40 40 41 41 40 39 38 38 38 38 38 38 38 38 38 37 37 37 36 36 36 36 36 36 37 37 37 36 35 34 33 31 31
44 43 42 43 44 43 42 41 40 39 39 40 41 41 40 40 39 39 39 39 39 39 38 38 38 38 38 37 37 37 37 37 37 38 39 40 39 38 36 35 33 32
46 45 44 44 43 42 41 41 40 39 39 40 41 42 42 41 41 40 39 39 39 39 39 39 39 40 40 39 39 39 39 39 38 39 40 41 41 40 39 38 36 34
49 48 47 46 45 44 42 42 41 41 41 42 43 43 43 43 42 41 41 40 40 40 40 41 41 42 42 42 42 42 41 40 39 39 40 42 43 43 42 41 39 38
52 50 49 48 47 46 45 45 44 44 44 44 44 44 44 44 44 44 44 43 42 41 41 42 43 44 44 45 44 44 44 43 41 40 40 42 44 45 44 43 42 41
55 54 51 50 50 49 48 48 48 48 47 47 47 47 46 46 45 46 46 45 43 42 42 43 44 45 45 46 46 46 46 45 44 42 42 42 44 45 46 45 44 44
57 56 54 53 53 53 53 53 52 52 51 50 49 48 47 47 48 48 48 47 45 45 45 44 45 45 45 45 46 47 47 47 46 45 44 43 44 45 46 47 47 46
59 58 57 56 57 58 57 57 56 56 55 54 53 52 51 50 51 50 50 49 48 47 46 46 46 45 45 45 46 48 49 49 49 47 46 45 44 45 46 47 49 49
60 58 59 60 60 60 60 59 59 59 58 57 56 55 54 53 53 52 52 51 49 48 47 47 48 47 46 46 46 47 48 49 49 49 48 47 46 46 46 48 49 51
62 58 59 60 60 60 60 60 60 60 59 58 57 56 55 54 54 53 53 52 50 49 49 49 49 49 47 46 45 46 46 47 48 49 49 49 48 48 48 48 49 51
65 61 60 62 62 61 60 60 61 61 60 60 59 58 57 56 55 55 54 53 52 52 52 51 50 50 48 45 43 44 44 44 45 47 48 49 50 50 49 49 50 51
62 61 61 63 64 64 64 63 63 63 63 63 62 60 59 58 57 56 56 55 55 54 53 51 51 49 47 45 44 43 43 43 44 44 45 47 49 50 51 51 51 51
Wind_Direction
229 228 227 227 228 229 230 230 228 225 225 227 227 227 226 225 226 227 228 231 233 235 238 240 241 244 248 253 257 259 261 264 265 263 261 260 260 262 263 260 257 255
228 227 226 226 227 228 230 231 230 227 225 227 227 227 226 226 227 226 226 228 231 233 235 237 239 241 245 249 251 253 258 264 267 265 261 259 258 259 261 262 261 257
225 226 226 225 226 228 231 232 231 229 227 226 228 229 228 227 226 224 224 226 228 231 233 234 236 239 242 244 245 247 253 261 265 266 263 259 257 257 258 261 262 261
224 224 225 226 227 228 230 232 231 229 228 227 228 230 230 228 226 224 224 225 227 229 230 231 234 237 240 240 240 241 247 255 262 265 265 261 258 257 258 259 261 262
224 224 225 226 227 229 231 232 231 229 228 227 228 230 230 228 226 224 224 225 226 226 227 229 233 236 237 237 236 237 241 249 258 262 265 264 260 258 259 259 259 260
224 225 226 227 227 229 231 232 231 229 228 227 228 230 229 226 224 223 224 224 224 225 225 227 231 233 233 233 234 235 237 243 252 258 263 264 261 258 258 258 258 258
224 225 227 228 229 230 231 231 230 229 228 228 230 230 228 224 222 222 223 222 222 223 225 226 229 230 230 231 233 233 234 240 248 255 260 263 261 257 256 257 257 257
226 226 227 229 229 230 230 230 229 228 229 230 231 230 226 222 220 220 221 222 223 224 226 227 228 229 228 229 231 232 232 236 244 251 256 260 261 258 255 255 256 257
226 227 228 229 230 230 230 230 229 229 230 231 230 228 224 221 218 218 219 222 223 224 226 229 229 230 229 228 229 230 230 232 239 246 251 255 259 260 259 257 256 257
224 225 227 229 230 230 231 230 229 229 230 230 229 226 222 219 217 218 220 222 224 225 227 229 231 231 230 228 228 229 229 230 235 241 244 249 255 259 261 259 257 257
222 223 225 227 229 230 230 229 229 229 230 228 226 224 220 218 218 219 221 224 225 227 228 229 230 230 230 229 229 230 230 230 232 236 240 244 249 254 257 258 257 257
222 223 223 225 228 229 228 228 228 228 229 226 224 222 219 218 220 221 223 224 225 226 227 228 229 229 230 230 231 231 231 231 232 234 237 241 244 248 253 256 257 257
223 223 223 224 226 227 226 226 227 227 227 224 222 222 221 220 221 223 223 224 225 226 227 227 228 229 231 232 233 234 234 233 234 234 236 239 241 244 247 252 255 256
223 223 223 223 223 224 225 225 226 225 224 223 222 222 223 223 223 224 224 225 226 227 228 229 229 230 233 234 235 237 237 236 236 236 237 238 239 242 244 247 252 255
224 223 224 223 223 224 224 224 225 224 224 225 225 225 224 225 225 226 226 227 227 229 230 231 231 231 233 235 236 239 240 239 238 238 239 239 239 241 242 244 247 251
223 223 223 224 224 224 223 223 224 225 225 227 228 229 229 229 229 229 230 230 230 231 231 231 231 231 233 235 237 239 240 241 241 240 241 241 241 241 242 243 244 246
220 221 221 222 223 221 220 222 224 225 226 227 228 231 232 233 233 233 233 234 233 233 233 231 231 231 232 234 236 238 240 242 243 243 243 243 242 242 242 242 242 243
217 217 219 219 219 219 219 222 225 225 226 227 228 230 232 234 235 236 235 236 236 235 234 232 231 231 231 233 234 237 240 242 244 245 244 244 244 244 243 243 243 244
216 215 216 217 217 218 219 221 224 226 227 228 230 231 233 234 235 236 237 237 237 237 236 233 232 232 232 233 234 236 238 241 243 245 246 246 246 245 245 244 244 245
216 214 214 215 215 217 219 221 223 225 226 228 230 231 232 233 234 236 237 238 238 237 237 235 233 233 234 234 235 236 237 239 242 244 246 247 247 247 248 248 248 248
215 214 213 213 214 217 219 220 223 225 226 227 228 229 231 232 234 236 237 238 237 237 237 236 235 235 235 236 237 237 237 238 240 242 245 247 248 249 250 251 252 252
213 214 214 213 215 217 220 222 223 224 225 225 226 227 228 229 231 233 235 236 236 237 238 238 237 236 237 238 239 239 239 239 239 241 243 246 249 250 251 252 254 255
213 215 215 216 217 219 222 224 226 227 226 226 227 227 227 228 229 231 234 235 236 236 237 238 238 237 237 237 239 242 242 241 241 241 242 244 247 250 251 253 254 255
216 216 217 218 220 222 224 227 228 230 229 229 230 230 228 228 229 230 233 234 235 236 237 238 238 238 238 238 239 243 245 245 245 244 243 244 245 247 250 253 255 256
218 219 220 221 221 223 226 228 230 232 232 231 232 232 231 230 229 231 233 234 234 235 236 237 238 238 239 239 240 244 247 249 249 248 248 247 247 247 249 251 255 257
217 220 224 226 227 227 227 228 229 231 233 232 232 233 232 232 231 232 233 234 235 236 237 238 239 240 241 241 241 244 247 250 251 252 252 252 251 251 251 252 254 257